Zurück zum Katalog

STARLINK-11594

AktivKommunikationVLEO
NORAD 64320·PAYLOAD·🇺🇸 United States

Gestartet Jun 10, 2025 von Cape Canaveral Space Force Station

Loading…

Nächste Überflüge (nächste 24 Stunden)

TLE

AktuellSource: CelesTrak SupGP

Epoche: Sep 15, 2026, 02:53 UTC

1 64320C 25124D   26258.12062500  .00015943  00000+0  12387-3 0  2581
2 64320  43.0000 327.7531 0001589 257.2179  75.6110 15.70822649    13

Verfolge STARLINK-11594 in Echtzeit mit AllMySat

Download on the App Store